Regional Weather Roundup
Issued by NWS Lake Charles, LA

Home | Current Version | Previous Version | Text Only | Print | Product List | Glossary On
Versions: 1 2 3 4 5 6 7 8 9 10 11 12 13 14 15 16 17 18 19 20 21 22 23 24 25 26 27
000
ASUS44 KLCH 211110
RWRLCH
REGIONAL WEATHER ROUNDUP
NATIONAL WEATHER SERVICE LAKE CHARLES LA
500 AM CST WED FEB 21 2018

Note: "fair" indicates few or no clouds below 12,000 feet with no
significant weather and/or obstructions to visibility.


ACROSS SOUTHEAST TEXAS

CITY           SKY/WX    TMP DP  RH WIND       PRES   REMARKS
BEAUMONT       CLOUDY    71  69  93 S12       30.09R
BEAUMONT CITY  CLOUDY    73  69  88 SE10      30.09S
ORANGE         CLOUDY    71  71 100 S9        30.11S
JASPER         RAIN      73  70  92 SE5       30.11S
$$

ACROSS CENTRAL LOUISIANA

CITY           SKY/WX    TMP DP  RH WIND       PRES   REMARKS
LEESVILLE      CLOUDY    71  69  92 SE12      30.10F
FULLERTON      CLOUDY    72  69  90 VRB3      30.10S
ALEXANDRIA INT MOCLDY    71  68  90 S8        30.11S
ESLER FIELD    CLOUDY    71  70  96 S5        30.14R
DERIDDER       PTSUNNY   72  70  96 SE5       30.13S
OAKDALE        CLOUDY    73  69  88 SE3       30.13S
OPELOUSAS      CLOUDY    72  70  92 SE7       30.13S
$$

ACROSS SOUTHWEST AND SOUTH CENTRAL LOUISIANA

CITY           SKY/WX    TMP DP  RH WIND       PRES   REMARKS
SULPHUR        CLOUDY    73  71  92 SE13      30.12R
LAKE CHARLES   CLOUDY    73  71  93 SE16      30.10F
CHENNAULT INT  CLOUDY    73  70  92 SE14      30.11S
CAMERON PHI    FOG       68  68 100 SE15      30.09S VSB 1/4
DEQUINCY       NOT AVBL
JENNINGS       CLOUDY    73  70  92 SE10G17   30.12R
LAFAYETTE      CLOUDY    73  72  96 S9        30.13F
NEW IBERIA     CLOUDY    71  68  90 SE9       30.14S
ABBEVILLE      CLOUDY    71  71 100 SE9       30.13S
PATTERSON      CLOUDY    72  71  97 SE8       30.16S
SALT POINT       N/A     70  69  97 SE8       30.13S
$$

SELECTED SITES ACROSS THE REGION

CITY           SKY/WX    TMP DP  RH WIND       PRES   REMARKS
HOUSTON BUSH   CLOUDY    70  68  93 SE15G22   30.04S
HOUSTON HOBBY  LGT RAIN  69  69 100 SE8       30.04F
GALVESTON      LGT RAIN  71  70  96 SE16      30.05F FOG
COLLEGE STAT   CLOUDY    52  52 100 N12       30.05R
CONROE         LGT RAIN  68  68 100 SE10      30.03F
HUNTSVILLE     CLOUDY    71  67  87 S7        30.05R
LUFKIN         CLOUDY    70  68  93 S8        30.06F
SHREVEPORT     CLOUDY    70  69  97 S6        30.08R
MONROE         CLOUDY    70  67  90 SE6       30.14S
NATCHEZ MS     CLOUDY    72  68  87 S13       30.16S
BATON ROUGE    CLOUDY    72  70  93 SE8       30.16S FOG
N.O. INTL ARPT MOCLDY    72  72 100 SE10      30.19S
SLIDELL        CLOUDY    72  70  93 SE8       30.20S
$$

MARINE REPORTS

STATION/POSITION TIME  SKY/WX   TEMP    WIND        PRES    VSBY
                                AIR SEA DIR/SP/G
                 (UTC)          (F)     (DEG/KT/KT) (MB)    (MI)
BUOY 30 S HIGH I 0950            67 61  120/  8/ 10 1018.4
WVE H/P(F/S)=  4/ 8

SEA RIM ST PARK  1100            67     130/  5/  6 1019.1F
PORT ARTHUR      1036            69 66  160/  5/  7 1019.1R
SABINE PASS N    1036            67 68  130/  4/  5 1020.6R
TEXAS POINT      NOT AVBL
CALCASIEU PASS   1048            68 67  150/ 11/ 14 1017.7F
LK CHARLES BEACH 1048            73 67              1018.9F
MARSH ISLAND     1000            71                   N/A
FRESH WATER LOCK 1048            70 73  120/  9/ 13 1019.8S
AMERADA PASS     1048            72 54  120/  6/ 11 1020.8S
$$




USA.gov is the U.S. government's official web portal to all federal, state and local government web resources and services.